Simultaneous Nadir Overpasses (SNOs) Predictions

Prediction of SNOs between METOP-B and TERRA Satellite Orbit:

Table of predicted SNOs for the next 14.0 days since TLE Epoch: 1/4/2020
Index Date (METOP-B) Time (METOP-B) Lat,Lon (METOP-B) SZA (METOP-B ) Date (TERRA) Time (TERRA) Lat,Lon (TERRA) SZA (TERRA ) Distance(km) Time Diff (sec)
1 01/05/2020 01:36:45 81.02,-166.69 105.32 01/05/2020 01:37:58 80.73,-165.49 105.21 39.28 73
2 01/05/2020 02:27:01 -81.28, 10.05 73.59 01/05/2020 02:27:02 -81.29, 10.22 73.57 2.91 1
3 01/05/2020 03:17:40 81.30, 178.16 106.50 01/05/2020 03:16:28 81.30, 178.03 106.46 2.15 72
4 01/07/2020 21:10:44 81.28, -91.16 106.03 01/07/2020 21:11:50 81.27, -91.29 106.04 2.46 66
5 01/07/2020 22:01:24 -81.28, 76.46 73.95 01/07/2020 22:01:16 -81.29, 76.60 73.94 2.35 8
6 01/10/2020 16:45:07 81.29, -24.41 105.65 01/10/2020 16:46:04 81.29, -24.57 105.66 2.76 57
7 01/10/2020 17:35:48 -81.28, 142.86 74.37 01/10/2020 17:35:31 -81.28, 142.97 74.37 1.82 17
8 01/13/2020 12:19:31 81.29, 41.95 105.17 01/13/2020 12:20:19 81.28, 41.77 105.17 3.06 48
9 01/13/2020 13:10:11 -81.29,-150.35 74.80 01/13/2020 13:09:45 -81.30,-150.29 74.80 1.38 26
10 01/16/2020 07:53:55 81.28, 107.90 104.60 01/16/2020 07:54:33 81.28, 108.09 104.63 3.23 38




NCC Satellite Simultaneous Nadir Overpasses (SNOs) Prediction Service
